Location: Gury
(49.5701°N, 2.8013°E)
Time: 05:17:04
(UTC+00:00)

Daily predictions for brighter satellites

Satellite Brightness Start Highest point End
(mag) Time Altitude Azimuth Time Altitude Azimuth Time Altitude Azimuth
CENTAUR R/B 4.3 02:33:59 33° NNE 02:34:12 33° NNE 02:41:48 10° E
USA 234 4.0 03:15:26 10° ENE 03:21:02 46° NNE 03:21:02 46° NNE
NOSS 3-1 (A) 4.5 03:27:44 38° NE 03:27:44 38° NE 03:31:39 10° NE
ATLAS 3B R/B 3.8 03:27:01 37° N 03:27:01 37° N 03:32:23 10° NE
Cosmos 2237 Rocket 3.6 03:35:15 32° NNE 03:36:24 35° NE 03:41:34 10° ESE
BREEZE-M DEB (TANK) 4.4 03:40:05 43° SE 03:40:18 43° SE 03:53:07 10° ENE
Envisat 4.3 03:39:34 10° NNE 03:42:51 36° NE 03:42:51 36° NE
Gbstr 26 Del rocket 4.4 03:52:47 78° NW 03:53:23 85° NNE 04:01:27 10° ESE
NOSS 0 Rocket 4.1 03:54:20 67° NE 03:54:40 68° NE 04:00:51 10° SE
Cosmos 968 Rocket 4.2 03:56:54 52° E 03:56:54 52° E 04:01:35 10° SE
IRS-P3 4.4 03:57:51 10° NNE 04:02:48 64° ENE 04:02:48 64° ENE
Cosmos 1455 4.5 04:07:00 22° NE 04:07:00 22° NE 04:08:52 10° NNE
COSMO-SKYMED 1 4.4 04:02:51 10° SE 04:06:39 30° ENE 04:10:28 10° N
COSMOS 2428 4.3 04:10:35 23° SSE 04:10:35 23° SSE 04:12:35 10° SSE
Timation 1 Rocket 4.3 04:08:36 83° ESE 04:08:36 83° ESE 04:14:34 10° NNE
Cosmos 2082 Rocket 4.5 04:13:28 12° NNW 04:13:28 12° NNW 04:14:45 10° N
SL-16 R/B 4.1 04:08:14 10° NNW 04:12:55 26° NE 04:17:40 10° E
CZ-4C R/B 4.0 04:16:15 22° NNW 04:17:48 24° N 04:23:24 10° NE
Cosmos 1110 Rocket 4.1 04:18:43 70° NNE 04:18:43 70° NNE 04:23:25 10° NNE
DMSP B5D2-2 4.4 04:14:38 10° SSE 04:19:52 66° ENE 04:25:07 10° N
BREEZE-M DEB (TANK) 4.0 04:26:48 24° E 04:26:48 24° E 04:27:52 10° E
CENTAUR R/B 3.5 04:21:09 24° NW 04:26:26 64° NE 04:35:24 10° ESE
Nadezhda 4 Rocket 3.9 04:27:08 67° WSW 04:27:36 69° W 04:33:55 10° N
USA 307 3.7 04:29:09 45° ENE 04:29:09 45° ENE 04:31:59 10° ENE
Cosmos 2297 Rocket 3.3 04:24:52 10° S 04:30:08 42° ESE 04:35:25 10° NE
ARIANE 5 R/B 2.7 04:25:49 10° NNE 04:29:57 58° NNW 04:29:57 58° NNW
USA 306 3.5 04:34:17 47° NE 04:34:17 47° NE 04:37:12 10° ENE
CZ-2C R/B 3.3 04:28:30 10° N 04:33:21 55° NW 04:33:21 55° NW
Cosmos 2227 Rocket 3.9 04:33:50 10° SSE 04:38:45 31° ESE 04:43:41 10° NE
NOSS 3-1 (C) 4.4 04:38:14 30° NNW 04:38:54 30° NNW 04:44:49 10° NE
Cosmos 1892 Rocket 3.7 04:37:25 20° N 04:40:22 72° ENE 04:44:41 10° SSE
NOAA 11 4.1 04:36:39 10° NNE 04:42:10 86° WNW 04:45:13 27° SSW
Cosmos 1238 Rocket 4.0 04:44:30 10° SSE 04:47:41 38° E 04:51:23 10° NNE
Cosmos 1818 4.2 04:44:39 25° NNW 04:47:43 55° NE 04:53:02 10° ESE
USA 229 DEB 3.8 04:48:18 44° WNW 04:49:40 51° NW 04:56:28 10° NE
USA 229 3.8 04:48:23 44° WNW 04:49:46 51° NW 04:56:35 10° NE
SKYMED 2 3.5 04:50:19 10° SSE 04:54:40 85° ENE 04:59:02 10° NNW
H-2A R/B 3.6 04:50:49 10° NNE 04:55:52 38° E 05:00:49 10° SSE
Helios 1B rocket 3.8 04:52:10 10° N 04:54:10 26° NNW 04:54:10 26° NNW
Okean 1 Rocket 3.9 04:57:35 35° NNW 04:57:35 35° NNW 05:00:32 10° N
SJ 16-02 2.6 04:54:10 10° N 04:58:18 41° ENE 05:02:26 10° SE
Spot 4 Rocket 3.9 04:55:37 10° NNE 05:00:47 84° WNW 05:05:55 10° SSW
USA 308 2.6 05:01:06 70° NW 05:01:13 70° NNW 05:05:09 10° ENE
Cosmos 1486 Rocket 4.4 04:56:16 10° NNW 05:01:34 63° ENE 05:06:51 10° SE
FALCON 9 DEB 3.9 05:03:26 38° NE 05:03:26 38° NE 05:05:24 10° ENE
USA 234 3.4 04:57:42 10° ESE 05:04:12 69° NNE 05:08:23 24° NW
Meteor 1-29 3.2 05:02:01 10° NNE 05:05:13 61° ESE 05:07:42 15° S
[s.n.55424] 4.0 05:07:27 34° SE 05:07:27 34° SE 05:09:05 10° SE
Cosmos 1626 Rocket 4.4 05:06:13 10° N 05:10:34 52° ENE 05:14:55 10° SSE
Cosmos 1553 Rocket 4.0 05:07:05 10° N 05:13:28 85° W 05:19:52 10° S
Cosmos 2219 4.4 05:08:10 10° S 05:13:30 43° ESE 05:18:49 10° NE
NOSS 3-1 (A) 4.4 05:15:09 25° NW 05:17:09 30° NNW 05:23:05 10° NE
ATLAS 3B R/B 4.2 05:14:15 18° NW 05:18:07 27° N 05:24:22 10° NE
Cosmos 2237 Rocket 2.3 05:17:08 21° NW 05:20:41 50° WSW 05:26:07 10° S
Cosmos 1992 Rocket 4.2 05:17:34 10° SSW 05:22:45 71° ESE 05:27:58 10° NNE
USA 305 3.0 05:22:25 40° NW 05:23:16 49° NNW 05:26:57 10° ENE
Envisat 4.0 05:19:06 10° N 05:23:03 26° WNW 05:23:03 26° WNW
Cosmos 1302 Rocket 4.0 05:22:46 18° SW 05:26:35 56° WNW 05:31:46 10° NNE
CZ-2C R/B 2.7 05:22:47 10° N 05:26:43 66° WNW 05:30:38 10° SSW
NOSS 3-2 (C) 4.2 05:22:15 12° NW 05:29:09 74° NE 05:37:42 10° SE
Cosmos 2026 Rocket 4.1 05:25:45 10° SW 05:31:32 46° WNW 05:37:22 10° N
Cosmos 1980 4.1 05:28:25 20° NW 05:31:44 39° WSW 05:36:56 10° S
SJ-12 4.0 05:31:18 10° N 05:35:19 52° WNW 05:39:19 10° SSW
ATLAS CENTAUR R/B 2.2 05:30:44 15° WSW 05:36:40 82° NW 05:40:09 10° NE
Cosmos 968 Rocket 4.4 05:36:59 24° W 05:37:56 26° W 05:42:10 10° SSW
Cosmos 2084 3.8 05:37:55 30° WNW 05:39:02 37° NW 05:42:35 10° NNE
Cosmos 1939 Rocket 2.7 05:35:49 10° N 05:39:37 60° WNW 05:43:23 10° SSW
USA 238 DEB 4.1 05:33:20 10° NW 05:40:34 72° NE 05:48:16 10° SE
USA 238 4.1 05:33:27 10° NW 05:40:40 71° NE 05:48:23 10° SE
Cosmos 1455 3.4 05:41:38 22° NW 05:41:38 22° NW 05:43:59 10° NNW
Cosmos 1184 Rocket 3.3 05:40:17 10° S 05:42:24 40° E 05:44:33 10° NNE
Cosmos 2058 3.8 05:38:23 10° N 05:42:24 50° ENE 05:46:22 10° SSE
COSMO-SKYMED 1 3.2 05:38:51 10° SSW 05:42:46 33° W 05:46:43 10° NNW
MINOTAUR 4 R/B 3.8 05:39:30 10° SSE 05:42:55 80° WSW 05:46:22 10° NNW
[s.n.55392] 3.4 05:44:51 32° W 05:45:14 34° WSW 05:47:55 10° S
PSLV R/B 4.0 05:42:22 10° N 05:46:15 36° WNW 05:50:06 10° SW
Cosmos 1544 Rocket 3.4 05:42:17 10° SSW 05:46:37 77° W 05:50:59 10° N
[s.n.55391] 3.5 05:46:28 30° W 05:46:56 33° WSW 05:49:38 10° S
Okean 1-7 Rocket 3.6 05:42:36 10° NNW 05:47:11 74° W 05:51:44 10° S
[s.n.55393] 3.5 05:46:46 30° W 05:47:14 32° WSW 05:49:56 10° S
Cosmos 2266 Rocket 4.2 05:40:54 10° S 05:47:19 80° E 05:53:42 10° NNE
[s.n.55397] 3.5 05:46:55 30° W 05:47:24 32° WSW 05:50:05 10° S
[s.n.55395] 3.5 05:47:06 30° W 05:47:34 32° WSW 05:50:16 10° S
[s.n.55394] 3.5 05:47:13 30° W 05:47:43 32° WSW 05:50:24 10° S
[s.n.55399] 3.6 05:47:22 30° W 05:47:52 32° WSW 05:50:33 10° S
[s.n.55401] 3.6 05:47:32 29° W 05:48:01 32° WSW 05:50:42 10° S
[s.n.55396] 3.6 05:47:41 29° W 05:48:10 31° WSW 05:50:51 10° S
[s.n.55398] 3.6 05:47:50 29° W 05:48:20 31° WSW 05:51:00 10° S
[s.n.55403] 3.6 05:47:59 29° W 05:48:29 31° WSW 05:51:09 10° S
[s.n.55400] 3.6 05:48:08 29° W 05:48:38 31° WSW 05:51:17 10° S
[s.n.55405] 3.6 05:48:17 29° W 05:48:48 31° WSW 05:51:27 10° S
[s.n.55402] 3.6 05:48:26 29° W 05:48:57 31° WSW 05:51:36 10° S
[s.n.55404] 3.6 05:48:31 29° W 05:49:01 31° WSW 05:51:41 10° S
[s.n.55407] 3.6 05:48:35 28° W 05:49:06 31° WSW 05:51:45 10° S
NOSS 3-2 (A) 4.1 05:42:00 11° NW 05:49:10 64° SW 05:57:42 10° SSE
[s.n.55409] 3.6 05:48:54 28° W 05:49:25 30° WSW 05:52:04 10° S
[s.n.55406] 3.6 05:49:03 28° W 05:49:34 30° WSW 05:52:12 10° S
[s.n.55408] 3.6 05:49:12 28° W 05:49:42 30° WSW 05:52:21 10° S
CZ-4C R/B 4.2 05:45:58 10° SSW 05:49:46 31° W 05:53:29 10° NNW
[s.n.55411] 3.6 05:49:21 28° W 05:49:52 30° WSW 05:52:31 10° S
[s.n.55413] 3.6 05:49:30 28° W 05:50:01 30° WSW 05:52:40 10° S
[s.n.55415] 3.7 05:49:39 28° W 05:50:10 30° WSW 05:52:49 10° S
[s.n.55410] 3.7 05:49:40 28° W 05:50:11 30° WSW 05:52:50 10° S
[s.n.55412] 3.7 05:49:58 27° W 05:50:29 29° WSW 05:53:07 10° S
[s.n.55417] 3.7 05:50:00 27° W 05:50:32 29° WSW 05:53:09 10° S
[s.n.55414] 3.7 05:50:08 27° W 05:50:40 29° WSW 05:53:17 10° S
[s.n.55419] 3.7 05:50:25 27° W 05:50:57 29° WSW 05:53:34 10° S
[s.n.55416] 3.7 05:50:34 27° W 05:51:06 29° WSW 05:53:43 10° S
[s.n.55421] 3.7 05:50:36 27° W 05:51:09 29° WSW 05:53:46 10° S
[s.n.55418] 3.7 05:50:52 27° W 05:51:24 29° WSW 05:54:01 10° S
[s.n.55423] 3.7 05:51:01 27° W 05:51:33 29° WSW 05:54:10 10° S
[s.n.55420] 3.7 05:51:10 26° W 05:51:43 28° WSW 05:54:19 10° S
S3M 3.9 05:45:35 10° NNW 05:51:49 74° W 05:57:57 10° S
[s.n.55425] 3.7 05:51:19 26° W 05:51:53 28° WSW 05:54:29 10° S
[s.n.55427] 3.7 05:51:27 26° W 05:52:01 28° WSW 05:54:36 10° S
[s.n.55422] 3.7 05:51:38 26° W 05:52:10 28° WSW 05:54:46 10° S
[s.n.55429] 3.8 05:51:56 26° W 05:52:29 28° WSW 05:55:04 10° S
[s.n.55426] 3.8 05:52:05 26° W 05:52:39 28° WSW 05:55:14 10° S
[s.n.55438] 3.8 05:52:12 26° W 05:52:44 27° WSW 05:55:18 10° S
[s.n.55431] 3.8 05:52:14 26° W 05:52:48 28° WSW 05:55:23 10° S
DMSP B5D1-3 4.4 05:47:51 10° S 05:52:55 76° WSW 05:58:02 10° NNW
[s.n.55428] 3.8 05:52:23 25° W 05:52:57 28° WSW 05:55:32 10° S
[s.n.55433] 3.8 05:52:32 25° W 05:53:06 27° WSW 05:55:41 10° S
[s.n.55430] 3.8 05:52:41 25° W 05:53:16 27° WSW 05:55:50 10° S
[s.n.55432] 3.8 05:52:50 25° W 05:53:25 27° WSW 05:55:59 10° S
[s.n.55435] 3.8 05:52:59 25° W 05:53:34 27° WSW 05:56:08 10° S
[s.n.55437] 3.8 05:53:08 25° W 05:53:42 27° WSW 05:56:16 10° S
[s.n.55434] 3.8 05:53:18 25° W 05:53:53 27° WSW 05:56:26 10° S
[s.n.55436] 3.8 05:53:26 25° W 05:54:02 27° WSW 05:56:35 10° S
[s.n.55439] 3.8 05:53:36 25° W 05:54:11 27° WSW 05:56:44 10° S
SL-16 R/B 2.2 05:51:55 10° NNW 05:57:38 74° WSW 06:03:18 10° SSE
Cosmos 1455 Rocket 3.8 05:54:25 10° SW 05:58:19 30° WNW 06:02:13 10° N
Cosmos 1943 4.3 05:58:06 10° NNW 06:03:29 44° NE 06:08:50 10° SE
Cosmos 1655 Rocket 4.1 05:58:05 10° S 06:04:27 90° W 06:10:48 10° N
NOAA 12 4.1 06:01:34 10° N 06:06:50 64° WNW 06:12:04 10° SSW
USA 307 3.2 06:04:05 16° WNW 06:06:58 45° N 06:10:47 10° ENE
CZ-4C R/B 4.0 06:02:12 10° NW 06:08:13 36° NNE 06:15:26 10° E
ARIANE 5 R/B 4.1 06:06:42 10° NNW 06:09:04 13° NW 06:10:17 12° WNW
Cosmos 2084 Rocket 3.1 06:05:27 11° NW 06:09:11 90° NNE 06:13:04 10° SE
USA 267 3.4 06:04:48 10° ENE 06:11:23 84° SSE 06:17:56 10° SW
FALCON 9 R/B 4.5 06:07:06 10° SW 06:12:01 21° S 06:22:24 10° SE
Cosmos 1400 Rocket 2.8 06:08:02 10° NNW 06:12:08 76° W 06:16:13 10° S
USA 306 3.3 06:09:09 14° WNW 06:12:13 43° N 06:16:00 10° ENE
Cosmos 2297 Rocket 2.7 06:08:55 10° WSW 06:14:13 40° NW 06:19:33 10° NNE
CENTAUR R/B 3.6 06:09:25 10° NW 06:17:16 48° WSW 06:25:51 10° S
Cosmos 1602 Rocket 3.7 06:15:03 10° NNW 06:19:19 51° W 06:23:33 10° S
JB-3 4.3 06:18:07 10° S 06:22:08 72° WSW 06:26:05 10° NNW
FengYun 1-2 T 4.4 06:16:54 10° N 06:22:21 52° WNW 06:27:47 10° SW
Cosmos 2227 Rocket 2.4 06:17:03 10° SW 06:22:34 51° NW 06:28:08 10° NNE
Cosmos 2315 Rocket 4.0 06:16:50 10° NNW 06:23:11 70° W 06:29:26 10° S
Cosmos 1777 Rocket 4.0 06:18:13 10° NNW 06:23:27 75° WSW 06:28:37 10° SSE
Cosmos 1503 Rocket 4.3 06:19:03 10° NNW 06:23:59 47° WSW 06:28:55 10° S
Cosmos 1953 Rocket 4.4 06:20:17 10° N 06:24:34 54° ENE 06:28:48 10° SSE
Cosmos 2228 2.9 06:20:24 10° SSW 06:24:40 74° W 06:28:56 10° N
CZ-2D R/B 3.2 06:23:07 10° N 06:26:49 57° WNW 06:30:29 10° SSW
Cosmos 1238 Rocket 4.2 06:24:29 10° WSW 06:26:56 17° WNW 06:29:40 10° NNW
Cosmos 1356 Rocket 4.0 06:24:10 10° NNW 06:27:53 34° W 06:31:37 10° SSW
CZ-4B R/B 3.9 06:24:45 10° N 06:29:46 45° WNW 06:34:44 10° SW
Cosmos 1818 4.4 06:26:15 10° NW 06:31:04 33° WSW 06:35:52 10° S
Cosmos 1758 Rocket 4.0 06:30:05 10° NNW 06:34:19 42° W 06:38:32 10° SSW
H-2A R/B 2.6 06:30:16 10° N 06:35:16 38° WNW 06:40:11 10° SW
SJ 16-02 2.4 06:33:04 10° NW 06:36:36 24° W 06:40:06 10° SSW
FALCON 9 DEB 3.5 06:34:58 10° WNW 06:37:40 38° N 06:40:23 10° ENE
USA 308 3.4 06:36:30 10° WNW 06:40:16 42° N 06:44:01 10° ENE
Cosmos 2344 4.3 06:36:26 10° NW 06:45:02 87° SW 06:57:03 10° SE
